www.pogodaiklimat.ru

Погода и климат >> Архив погоды >> Индия >> Pune


ПОГОДА в Pune

  • Прогноз погоды в Pune
  • Монитор погоды в Pune
  • Климат города

АРХИВ ПОГОДЫ в Pune

Время (UTC), дата Ветер
(напр.,м/с)
 
Видим.   Явления Облачность Т
(С)
Тd
(С)
f
(%)
Тe
(С)
Тes
(С)
Комфортность P
(гПа)
Po
(гПа)
Тmin
(С)
Tmax
(С)
R
(мм)
R24
(мм)
S
(см)
18 19.06 З 1 4000 м 6/6 800 м
[Sc]
+25.0 +22.4 86 +33 +33 очень
душно
1005.6 943.9
21 19.06 З 2 4000 м 5/5 800 м
[Sc]
+24.8 +22.5 87 +32 +32 очень
душно
1004.4 942.9
00 20.06 З 2 4000 м слабый дождь 6/6 800 м
[Sc]
+24.2 +22.5 90 +32 +32 очень
душно
1004.8 943.1 0.1
03 20.06 З 3 10 км {дождь} 5/5 800 м
[Cu Sc]
+27.0 +20.9 69 +34 +37 очень
душно
1005.6 944.4 +22.9 0.1
06 20.06 З 3 10 км 9/9 800 м
[Cu Sc]
+29.4 +21.6 63 +37 +39 очень
душно
1005.1 944.5
09 20.06 З 2 10 км 9/9 800 м
[Cu Sc]
+30.2 +21.3 59 +38 +40 очень
душно
1003.6 942.3
12 20.06 З 2 10 км 5/4 800 м
[Cu Sc Ac trans]
+29.0 +21.2 63 +37 +38 очень
душно
1003.0 942.3
15 20.06 З 2 4000 м 4/4 800 м
[Sc]
+26.2 +20.9 73 +33 +33 очень
душно
1004.6 943.4
18 20.06 З 1 4000 м 3/3 800 м
[Sc]
+25.2 +21.4 79 +32 +32 очень
душно
1005.4 944.0
21 20.06 З 1 4000 м 4/4 800 м
[Sc]
+24.6 +21.5 83 +31 +31 очень
душно
1004.9 943.2
00 21.06 З 1 4000 м 5/5 800 м
[Sc]
+24.0 +21.7 87 +31 +31 очень
душно
1005.4 943.5
03 21.06 З 3 10 км 4/3 800 м
[Sc Ci fib]
+26.8 +20.3 68 +33 +37 очень
душно
1005.1 943.9 +23.9
06 21.06 З 1 10 км 9/9 800 м
[Cu Sc]
+27.8 +20.5 65 +35 +37 очень
душно
1006.3 945.2
09 21.06 З 2 10 км 9/4 800 м
[Cu Sc Ac trans Ci fib]
+31.5 +20.8 53 +39 +45 очень
душно
1003.7 943.5
12 21.06 З 2 10 км 6/3 800 м
[Cu Sc Ci fib]
+29.1 +20.3 59 +36 +38 очень
душно
1003.1 942.6
15 21.06 З 1 4000 м 6/6 800 м
[Sc]
+26.4 +21.1 73 +33 +33 очень
душно
1005.5 944.3
18 21.06 З 1 4000 м {дождь} 8/8 800 м
[Sc]
+25.0 +21.5 81 +32 +32 очень
душно
1007.3 945.5 0.1
21 21.06 З 1 4000 м 6/6 800 м
[Sc]
+24.4 +21.5 84 +31 +31 очень
душно
1005.4 943.7 0.1
00 22.06 З 1 4000 м 9/9 800 м
[Sc]
+24.4 +22.1 87 +32 +32 очень
душно
1004.4 943.2 0.1
03 22.06 З 2 10 км 9/5 800 м
[Cu Sc Ac trans Ci fib]
+26.9 +21.3 71 +34 +36 очень
душно
1005.7 944.5 +23.6 0.1
06 22.06 З 2 10 км 8/6 660 м
[Frnb Ac trans]
+28.0 +21.5 68 +36 +41 очень
душно
1006.5 945.4
09 22.06 З 1 10 км 8/6 800 м
[Cu Sc Ac trans]
+31.4 +21.0 54 +39 +45 очень
душно
1003.9 943.7
12 22.06 З 2 10 км 8/4 800 м
[Sc Ac trans]
+29.2 +21.4 63 +37 +38 очень
душно
1003.7 943.1 +31.8
15 22.06 З 2 4000 м 9/8 660 м
[Frnb Ac trans]
+26.4 +22.7 80 +35 +35 очень
душно
1005.5 944.3
18 22.06 З 2 4000 м в посл. час дождь 8/6 660 м
[Frnb Ac trans]
+24.3 +23.0 92 +20 +20 1007.0 945.2 0.4
21 22.06 З 2 4000 м слабый дождь 9/8 660 м
[Frnb Ac trans]
+24.2 +22.8 92 +32 +32 очень
душно
1005.7 944.0 0.5
00 23.06 З 2 4000 м слабый дождь 9/8 660 м
[Frnb Ac trans]
+23.8 +22.6 93 +31 +31 очень
душно
1005.6 943.7 0.7
03 23.06 СЗ 1 10 км {дождь} 9/8 660 м
[Frnb Ac trans]
+25.2 +22.6 86 +33 +34 очень
душно
1006.7 945.1 +23.4 0.7
06 23.06 СЗ 2 10 км слабый дождь {морось} 9/8 660 м
[Frnb Ac trans]
+27.7 +22.7 74 +37 +40 очень
душно
1005.8 944.8 0.8
09 23.06 З 2 10 км 8/8 660 м
[Frnb]
+30.8 +21.9 59 +39 +43 очень
душно
1003.3 943.0 0.8
12 23.06 З 3 10 км 5/5 800 м
[Cu Sc]
+30.4 +20.8 57 +38 +39 очень
душно
1002.2 941.9 +31.4 0.8
15 23.06 З 1 4000 м 3/3 800 м
[Sc]
+25.6 +21.8 80 +33 +33 очень
душно
1004.7 943.3 0.8
18 23.06 З 1 4000 м 3/3 800 м
[Sc]
+23.6 +20.0 80 +29 +29 душно 1006.3 944.4 0.8
21 23.06 З 1 4000 м 4/4 800 м
[Sc]
+24.4 +21.0 81 +31 +31 очень
душно
1004.2 942.5 0.8
00 24.06 З 1 4000 м 4/4 800 м
[Sc]
+24.3 +20.9 81 +30 +30 очень
душно
1003.1 941.6 0.8
03 24.06 З 4 10 км 9/8 800 м
[Cu Sc Ac trans]
+27.0 +20.5 68 +34 +34 очень
душно
1003.1 942.0 +23.8 0.8
06 24.06 З 3 10 км 9/6 660 м
[Frnb Ac trans]
+29.2 +21.7 64 +37 +41 очень
душно
1002.5 942.0
09 24.06 З 3 10 км 9/8 660 м
[Frnb Ac trans]
+27.4 +21.9 72 +35 +38 очень
душно
1001.3 940.6
12 24.06 З 4 10 км 9/8 660 м
[Frnb Ac trans]
+27.6 +21.5 69 +35 +35 очень
душно
1000.4 939.7 +29.7
15 24.06 З 1 4000 м {дождь} 9/9 660 м
[Frnb]
+23.8 +22.1 90 +31 +31 очень
душно
1002.0 940.4 0.5
18 24.06 штиль 0 4000 м {дождь} 6/6 800 м
[Sc]
+23.0 +21.7 92 +31 +31 очень
душно
1003.1 941.2 0.5
21 24.06 З 1 4000 м {дождь} 9/9 660 м
[Frnb]
+23.6 +22.4 93 +31 +31 очень
душно
1001.0 939.5 0.5
00 25.06 З 1 4000 м слабый дождь 9/9 660 м
[Frnb]
+23.6 +22.7 95 +31 +31 очень
душно
1000.5 939.0 2
03 25.06 З 2 10 км слабый дождь {морось} 10/10 660 м
[Frnb]
+23.8 +22.6 93 +31 +31 очень
душно
1001.5 939.9 +22.9 3
06 25.06 З 1 4000 м слабый дождь 10/10 660 м
[Frnb]
+24.6 +23.2 92 +33 +33 очень
душно
1001.5 940.1 3
09 25.06 З 2 10 км в посл. час дождь 9/8 660 м
[Frnb Ac trans]
+26.3 +23.3 84 +36 +38 очень
душно
999.7 938.9 6
12 25.06 З 2 10 км {дождь} 9/6 600 м
[Frnb Ac trans]
+25.1 +22.1 83 +32 +33 очень
душно
999.0 938.0 +26.7 6
15 25.06 З 1 4000 м 5/5 660 м
[Frnb]
+24.6 +21.7 84 +31 +31 очень
душно
1001.2 939.8 6
18 25.06 З 1 4000 м слабый дождь 10/9 660 м
[Frnb]
+23.8 +22.6 93 +31 +31 очень
душно
1003.2 947.0 6
21 25.06 штиль 0 4000 м {дождь} 8/8 660 м
[Frnb]
+23.6 +23.0 96 +31 +31 очень
душно
1000.9 939.3 6
00 26.06 З 1 4000 м слабый дождь 10/10 660 м
[Frnb Ac As]
+23.4 +23.1 98 +33 +33 очень
душно
1000.9 939.3 7
03 26.06 З 1 10 км {дождь} 9/8 660 м
[Frnb Ac trans]
+24.6 +22.9 90 +33 +34 очень
душно
1001.6 940.2 +22.8 9
06 26.06 З 2 10 км 8/8 660 м
[Frnb]
+26.8 +22.8 79 +36 +40 очень
душно
1002.2 941.1
09 26.06 З 1 10 км 8/8 800 м
[Cu Sc]
+26.6 +24.1 86 +37 +41 очень
душно
1001.3 940.3
12 26.06 З 2 4000 м 9/8 660 м
[Frnb Ac trans]
+25.6 +21.8 80 +33 +33 очень
душно
1000.9 939.7 +27.9
15 26.06 З 2 4000 м в посл. час гроза {дождь} 9/6 660 м
[Frnb Ac trans]
+23.9 +21.6 87 +31 +31 очень
душно
1002.9 941.2 0.4

 

Местоположение метеостанции Pune (Maharashtra, Индия): широта 18.53 долгота 73.85 высота над уровнем моря 559 м.

В архиве по умолчанию представлена погода в Pune за последнюю неделю. Архивные данные за месяц целиком и за предыдущие месяцы, начиная с января 2011 года, Вы можете получить, выбрав интересующий диапазон дат из раскрывающегося списка и нажав кнопку "Ввод!".

Внимание! Время в таблицах - всемирное. Для получения местного времени необходимо прибавить поправку, которая в Pune равна 5.5 ч.

Смотрите также архив погоды в соседних городах и на ближайших метеорологических станциях:

Погода в Bhira (Maharashtra, Индия) (48 км)
Погода в Mahabaleshwar (Maharashtra, Индия) (69 км)
Погода в Alibag (Maharashtra, Индия) (104 км)
Погода в Harnai (Maharashtra, Индия) (112 км)
Погода в Satara (Maharashtra, Индия) (114 км)
Погода в Mumbai Colaba (Maharashtra, Индия) (116 км)
Погода в Ahmednagar (Maharashtra, Индия) (117 км)
Погода в Mumbai (Maharashtra, Индия) (124 км)
Погода в Jeur (Maharashtra, Индия) (141 км)
Погода в Nashik (Maharashtra, Индия) (164 км)

Пояснения к столбцам:

Ветер - указаны скорость ветра в м/с - средняя за 10 мин, порывы в срок и между сроками (в фигурных скобках) и направление, откуда дует ветер: С - северный, СВ - северо-восточный, В - восточный, ЮВ - юго-восточный, Ю - южный, ЮЗ - юго-западный, З - западный, СЗ - северо-западный.
Видимость - горизонтальная дальность видимости в метрах или километрах. При видимости от 1 до 10 км при отсутствии осадков обычно наблюдается дымка, при ухудшении видимости до 1 км и менее - туман. В сухую погоду видимость может ухудшаться дымом, пылью или мглою.
Явления - указаны атмосферные явления, наблюдавшиеся в срок или в последний час перед сроком; фигурными скобками обозначены явления, наблюдавшиеся между сроками (за 1-3 часа до срока); квадратными скобками обозначены град или гололедные отложения с указанием их диаметра в мм.
Облачность - указаны через наклонную черту общая и нижняя облачность в баллах и высота нижней границы облаков в метрах; квадратными скобками обозначены формы облаков: Ci - перистые, Cs - перисто-слоистые, Cc - перисто-кучевые, Ac - высококучевые, As - высокослоистые, Sc - слоисто-кучевые, Ns - слоисто-дождевые, Cu - кучевые, Cb - кучево-дождевые. Подробнее классификацию облаков см. в Атласе облаков (PDF).
T - Температура воздуха - температура, измеренная на высоте 2 м над землей.
Td - Температура точки росы - температура, при понижении до которой содержащийся в воздухе водяной пар достигнет насыщения.
f - Относительная влажность воздуха - влажноcть воздуха, измеренная на высоте 2 м над землей.
Te - Эффективная температура - температура, которую ощущает одетый по сезону человек в тени. Характеристика душности погоды. При расчете учитывается влияние влажности воздуха и скорости ветра на теплоощущения человека.
Tes - Эффективная температура на солнце - температура, которую ощущает человек, с поправкой на солнечный нагрев. Характеристика знойности погоды. Зависит от высоты солнца над горизонтом, облачности и скорости ветра. Ночью, в пасмурную погоду, а также при ветре 12 м/с и более поправка равна нулю.
P - Атмосферное давление - приведенное к уровню моря атмосферное давление.
Po - Атмосферное давление - измеренное на уровне метеостанции атмосферное давление.
Tmin - Минимальная температура - минимум температуры воздуха на высоте 2 м над землей.
Tmax - Максимальная температура - максимум температуры воздуха на высоте 2 м над землей.
R - Количество осадков - Количество выпавших осадков за период времени, мм. При наведении курсора мыши на число - период времени, за который выпало указанное количество осадков.
R24 - Количество осадков - Количество выпавших осадков за 24 часа, мм.
S - Снежный покров - Высота снежного покрова, см. При наведении курсора мыши на число - состояние снежного покрова и степень покрытия местности в баллах.